Location: Gajan
(43.0218°N, 1.1244°E)
Time: 03:37:18
(UTC+00:00)

Cosmos 1408 Rocket - Pass Details

Date: 22 April 2021
Orbit: 601 x 631 km, 82.6° (Epoch: 15 May)

Event Time Altitude Azimuth Distance (km) Brightness Sun altitude
Rises 21:29:06 0° 352° (N) 2,865 7.9 -25.4°
Reaches altitude 10° 21:31:20 10° 354° (N) 1,960 6.8 -25.6°
Enters shadow 21:34:52 58° 7° (N) 709 3.9 -26.0°
